Tracking 27079 objects as of 23-Mar-2023
HD Live streaming from Space Station
objects crossing your sky now

STARLINK-5651

Track STARLINK-5651 now!
10-day predictions
STARLINK-5651 is classified as:


NORAD ID: 55357
Int'l Code: 2023-013AC
Perigee: 426.1 km
Apogee: 427.8 km
Inclination: 43.0 °
Period: 93.0 minutes
Semi major axis: 6797 km
RCS: Unknown
Launch date: January 26, 2023
Source: United States (US)
Launch site: AIR FORCE EASTERN TEST RANGE (AFETR)
Your satellite tracking list
Your tracking list is empty




NASA's NSSDC Master Catalog

Two Line Element Set (TLE):
1 55357U 23013AC  23082.58335648 -.00058407  00000-0 -10568-2 0  9999
2 55357  43.0001  65.3566 0001275 262.1794  40.5174 15.48943610  1308
Source of the keplerian elements: AFSPC